Date String (YYYY-MM-DD hh:mm:ss) UTC,Instrument flags,absolute air pressure of the measurement (hPa),sample flow rate (lpm),inlet stack bypass flow (lpm),air temperature of the measurement (°C),ambient temperature measured by the external sensor (°C),aerosol sample conditioner tube jacket temperature (°C),OPC LED temperature (°C),internal box temperature (°C),relative humidity of the measurement (%),span deviation,mass concentration of particles derived from Lorenz-Mie calculation of OPC scattering (μg/m³),mass concentration of particles derived from Lorenz-Mie calculation of OPC scattering (μg/m³),mass concentration of particles derived from Lorenz-Mie calculation of OPC scattering (μg/m³)
DateTimeUTC,F1_M11,P_M11,Q1_M11,Q2_M11,T1_M11,T2_M11,T3_M11,T4_M11,T5_M11,U1_M11,ZSPAN_M11,X0_M11,X2_M11,X1_M11
2023-07-28 02:00:00,SystemResetWarning,0833.7,5.01,000.00,028.8,027.4,000.0,037.1,030.6,24.6,0000.0,0006.64,0002.93,0002.06
2023-07-28 02:01:00,SystemResetWarning,0833.7,4.99,000.00,028.9,026.9,000.0,037.1,030.5,24.4,0000.0,0006.59,0002.89,0002.07
2023-07-28 02:02:00,SystemResetWarning,0833.7,5.00,000.00,028.8,025.2,000.0,037.0,030.3,24.5,0000.0,0006.47,0002.89,0002.07
2023-07-28 02:03:00,SystemResetWarning,0833.6,5.00,000.00,028.7,024.5,000.0,036.9,030.1,24.5,0000.0,0006.66,0002.90,0002.08
2023-07-28 02:04:00,SystemResetWarning,0833.6,5.02,000.00,028.6,024.8,000.0,036.9,030.0,24.6,0000.0,0006.93,0002.90,0002.07
2023-07-28 02:05:00,SystemResetWarning,0833.6,4.99,000.00,028.6,025.2,000.0,036.9,030.0,24.7,0000.0,0006.07,0002.85,0002.06
2023-07-28 02:06:00,SystemResetWarning,0833.6,4.99,000.00,028.6,025.7,000.0,036.9,030.0,24.8,0000.0,0006.04,0002.83,0002.04
2023-07-28 02:07:00,SystemResetWarning,0833.6,5.00,000.00,028.6,026.2,000.0,037.0,030.2,24.8,0000.0,0006.04,0002.81,0002.05
2023-07-28 02:08:00,SystemResetWarning,0833.6,5.01,000.00,028.6,026.6,000.0,037.0,030.3,24.7,0000.0,0005.91,0002.76,0002.04
2023-07-28 02:09:00,SystemResetWarning,0833.6,4.99,000.00,028.7,026.9,000.0,037.0,030.4,24.7,0000.0,0005.91,0002.76,0002.04
2023-07-28 02:10:00,SystemResetWarning,0833.6,4.99,000.00,028.7,027.2,000.0,037.0,030.4,24.3,0000.0,0005.92,0002.76,0002.05
2023-07-28 02:11:00,SystemResetWarning,0833.6,5.00,000.00,028.8,027.5,000.0,037.1,030.5,24.0,0000.0,0005.67,0002.76,0002.04
2023-07-28 02:12:00,SystemResetWarning,0833.7,5.00,000.00,028.8,027.7,000.0,037.1,030.6,23.8,0000.0,0005.67,0002.77,0002.04
2023-07-28 02:13:00,SystemResetWarning,0833.7,4.99,000.00,028.8,026.6,000.0,037.0,030.5,23.6,0000.0,0005.58,0002.75,0002.04
2023-07-28 02:14:00,SystemResetWarning,0833.7,5.00,000.00,028.8,024.9,000.0,036.9,030.2,23.5,0000.0,0005.13,0002.67,0002.03
2023-07-28 02:15:00,SystemResetWarning,0833.7,5.00,000.00,028.7,024.6,000.0,036.9,030.1,23.8,0000.0,0004.29,0002.67,0002.05
2023-07-28 02:16:00,SystemResetWarning,0833.7,5.01,000.00,028.6,024.9,000.0,036.9,029.9,23.7,0000.0,0004.46,0002.72,0002.07
2023-07-28 02:17:00,SystemResetWarning,0833.8,5.01,000.00,028.6,025.4,000.0,036.9,030.0,23.7,0000.0,0004.51,0002.76,0002.10
2023-07-28 02:18:00,SystemResetWarning,0833.8,4.99,000.00,028.6,025.9,000.0,036.9,030.1,23.8,0000.0,0004.39,0002.74,0002.10
2023-07-28 02:19:00,SystemResetWarning,0833.9,5.00,000.00,028.6,026.3,000.0,037.0,030.2,23.8,0000.0,0004.38,0002.77,0002.10
2023-07-28 02:20:00,SystemResetWarning,0834.0,5.00,000.00,028.6,026.7,000.0,037.0,030.3,23.7,0000.0,0004.43,0002.80,0002.12
2023-07-28 02:21:00,SystemResetWarning,0834.1,5.01,000.00,028.7,027.0,000.0,037.0,030.4,24.0,0000.0,0004.41,0002.78,0002.11
2023-07-28 02:22:00,SystemResetWarning,0834.1,5.00,000.00,028.7,027.3,000.0,037.0,030.5,24.8,0000.0,0004.34,0002.75,0002.10
2023-07-28 02:23:00,SystemResetWarning,0834.2,5.00,000.00,028.8,027.6,000.0,037.1,030.6,26.3,0000.0,0004.34,0002.77,0002.09
2023-07-28 02:24:00,SystemResetWarning,0834.3,5.00,000.00,028.9,027.6,000.0,037.1,030.6,27.1,0000.0,0004.33,0002.76,0002.08
2023-07-28 02:25:00,SystemResetWarning,0834.3,4.98,000.00,028.9,026.2,000.0,037.0,030.5,27.9,0000.0,0004.19,0002.78,0002.08
2023-07-28 02:26:00,SystemResetWarning,0834.3,5.01,000.00,028.8,025.4,000.0,036.9,030.3,28.4,0000.0,0005.07,0002.86,0002.07
2023-07-28 02:27:00,SystemResetWarning,0834.4,5.02,000.00,028.7,025.6,000.0,036.9,030.2,28.8,0000.0,0005.65,0002.85,0002.05
2023-07-28 02:28:00,SystemResetWarning,0834.4,4.98,000.00,028.7,025.9,000.0,037.0,030.2,29.0,0000.0,0005.75,0002.84,0002.04
2023-07-28 02:29:00,SystemResetWarning,0834.4,4.99,000.00,028.7,026.3,000.0,037.0,030.3,29.4,0000.0,0005.95,0002.91,0002.03
2023-07-28 02:30:00,SystemResetWarning,0834.4,5.00,000.00,028.7,026.7,000.0,037.1,030.4,29.7,0000.0,0006.06,0002.95,0002.03
2023-07-28 02:31:00,SystemResetWarning,0834.5,5.01,000.00,028.8,027.0,000.0,037.1,030.5,29.9,0000.0,0006.04,0002.93,0002.00
2023-07-28 02:32:00,SystemResetWarning,0834.5,5.00,000.00,028.8,027.3,000.0,037.1,030.5,30.1,0000.0,0006.18,0002.95,0002.00
2023-07-28 02:33:00,SystemResetWarning,0834.5,4.99,000.00,028.9,027.6,000.0,037.2,030.6,30.0,0000.0,0006.37,0002.98,0002.00
2023-07-28 02:34:00,SystemResetWarning,0834.4,4.99,000.00,028.9,027.1,000.0,037.1,030.6,29.8,0000.0,0006.31,0002.93,0002.00
2023-07-28 02:35:00,SystemResetWarning,0834.4,5.00,000.00,028.9,025.3,000.0,037.0,030.4,29.7,0000.0,0006.31,0002.91,0001.99
2023-07-28 02:36:00,SystemResetWarning,0834.4,5.00,000.00,028.8,024.3,000.0,036.9,030.2,29.9,0000.0,0007.23,0002.88,0001.98
2023-07-28 02:37:00,SystemResetWarning,0834.4,5.01,000.00,028.7,024.5,000.0,036.9,030.0,29.9,0000.0,0006.60,0002.78,0001.98
2023-07-28 02:38:00,SystemResetWarning,0834.5,5.00,000.00,028.6,025.0,000.0,036.9,029.9,30.1,0000.0,0005.74,0002.71,0001.98
2023-07-28 02:39:00,SystemResetWarning,0834.9,4.99,000.00,028.6,025.5,000.0,037.0,030.0,30.2,0000.0,0005.59,0002.68,0001.97
2023-07-28 02:40:00,SystemResetWarning,0834.6,5.01,000.00,028.6,026.0,000.0,037.0,030.1,30.3,0000.0,0008.36,0002.76,0002.00
2023-07-28 02:41:00,SystemResetWarning,0835.0,5.00,000.00,028.6,026.4,000.0,037.0,030.2,30.3,0000.0,0009.29,0002.93,0002.04
2023-07-28 02:42:00,SystemResetWarning,0834.7,5.00,000.00,028.7,026.8,000.0,037.0,030.3,30.3,0000.0,0011.36,0003.15,0002.13
2023-07-28 02:43:00,SystemResetWarning,0835.0,5.00,000.00,028.7,027.1,000.0,037.0,030.4,30.2,0000.0,0012.86,0003.34,0002.22
2023-07-28 02:44:00,SystemResetWarning,0835.1,5.01,000.00,028.8,027.4,000.0,037.1,030.5,30.2,0000.0,0013.92,0003.54,0002.31
2023-07-28 02:45:00,SystemResetWarning,0834.9,5.00,000.00,028.8,027.6,000.0,037.1,030.6,30.0,0000.0,0014.73,0003.74,0002.41
2023-07-28 02:46:00,SystemResetWarning,0834.9,4.99,000.00,028.9,027.8,000.0,037.1,030.6,29.8,0000.0,0015.59,0003.96,0002.55
2023-07-28 02:47:00,SystemResetWarning,0834.9,4.99,000.00,028.9,026.9,000.0,037.1,030.6,29.6,0000.0,0016.36,0004.17,0002.67
2023-07-28 02:48:00,SystemResetWarning,0835.0,5.00,000.00,028.8,025.5,000.0,037.0,030.4,29.7,0000.0,0017.70,0004.45,0002.82
2023-07-28 02:49:00,SystemResetWarning,0835.1,5.01,000.00,028.8,025.4,000.0,036.9,030.3,29.7,0000.0,0019.17,0004.74,0003.00
2023-07-28 02:50:00,SystemResetWarning,0835.2,5.01,000.00,028.7,025.7,000.0,037.0,030.2,29.5,0000.0,0021.06,0005.03,0003.15
2023-07-28 02:51:00,SystemResetWarning,0835.2,5.00,000.00,028.7,026.0,000.0,037.0,030.2,29.5,0000.0,0021.01,0005.19,0003.23
2023-07-28 02:52:00,SystemResetWarning,0835.2,4.99,000.00,028.7,026.4,000.0,037.1,030.3,29.5,0000.0,0021.06,0005.31,0003.31
2023-07-28 02:53:00,SystemResetWarning,0835.1,5.00,000.00,028.8,026.8,000.0,037.1,030.4,29.3,0000.0,0019.93,0005.35,0003.37
2023-07-28 02:54:00,SystemResetWarning,0835.0,5.00,000.00,028.8,027.1,000.0,037.1,030.5,29.3,0000.0,0018.97,0005.37,0003.44
2023-07-28 02:55:00,SystemResetWarning,0834.9,4.99,000.00,028.8,027.4,000.0,037.2,030.6,29.2,0000.0,0018.26,0005.37,0003.49
2023-07-28 02:56:00,SystemResetWarning,0835.1,4.99,000.00,028.9,027.6,000.0,037.2,030.6,29.0,0000.0,0018.03,0005.39,0003.55
2023-07-28 02:57:00,SystemResetWarning,0834.9,5.00,000.00,028.9,027.7,000.0,037.2,030.7,28.9,0000.0,0017.96,0005.43,0003.60
2023-07-28 02:58:00,SystemResetWarning,0835.0,5.00,000.00,028.9,026.3,000.0,037.1,030.4,28.3,0000.0,0017.53,0005.48,0003.65
2023-07-28 02:59:00,SystemResetWarning,0835.1,5.01,000.00,028.9,025.3,000.0,037.0,030.3,28.6,0000.0,0017.21,0005.52,0003.69
